Grand Rapids, MI

12:26 AM EDT on June 24, 2017 (GMT -0400)
Gerald R. Ford International

Weather History for KGRR - April, 2014

Change the Weather History Date:

Monday, April 28, 2014

  Actual Average Record
Temperature  
Mean Temperature 51 °F 53 °F  
Max Temperature 58 °F 64 °F 83 °F (1901)
Min Temperature 43 °F 42 °F 24 °F (1945)
Degree Days  
Heating Degree Days 14 13  
Month to date heating degree days 497 494  
Since 1 July heating degree days 6961 6181  
Cooling Degree Days 0 0  
Month to date cooling degree days 2 0  
Year to date cooling degree days 2 1  
Moisture  
Dew Point 33 °F    
Average Humidity 51    
Maximum Humidity 62    
Minimum Humidity 40    
Precipitation  
Precipitation 0.01 in 0.12 in 1.18 in (1975)
Month to date precipitation 2.01 3.11  
Year to date precipitation 9.35 9.36  
Snow  
Snow 0.00 in 0.00 in 0.90 in (1961)
Month to date snowfall 1.8 1.8  
Since 1 July snowfall 116.0 74.9  
Snow Depth 0.00 in    
Sea Level Pressure  
Sea Level Pressure 29.87 in    
Wind  
Wind Speed 22 mph (East)    
Max Wind Speed 36 mph    
Max Gust Speed 46 mph    
Visibility 10 miles    
Events Rain    
T = Trace of Precipitation, MM = Missing Value Source: NWS Daily Summary

Daily Weather History Graph

Daily Weather History Graph

Search for Another Location

Airport or City:

Trip Planner

Search our weather history database for the weather conditions in past years. The results will help you decide how hot, cold, wet, or windy it might be!

Date:

Astronomy

Apr. 28, 2014 Rise Set
Actual Time 6:40 AM EDT 8:39 PM EDT
Civil Twilight 6:09 AM EDT 9:10 PM EDT
Nautical Twilight 5:32 AM EDT 9:47 PM EDT
Astronomical Twilight 4:51 AM EDT 10:28 PM EDT
Moon 6:19 AM EDT (4/28) 8:16 PM EDT (4/28)
Length of Visible Light 15h 00m
Length of Day
13h 59m
Waning Crescent, 0% of the Moon is Illuminated
Apr 28
Waning Crescent
Apr 29
New
May 6
First Quarter
May 14
Full
May 21
Last Quarter

Hourly Weather History & Observations

Time (EDT) Temp. Windchill Dew Point Humidity Pressure Visibility Wind Dir Wind Speed Gust Speed Precip Events Conditions
12:53 AM 46.4 °F 39.0 °F 32.0 °F 57% 29.99 in 10.0 mi East 19.6 mph 31.1 mph N/A   Clear
1:53 AM 45.0 °F 37.1 °F 30.9 °F 58% 30.04 in 10.0 mi East 19.6 mph - N/A   Clear
2:53 AM 44.1 °F 36.2 °F 30.0 °F 58% 30.02 in 10.0 mi East 18.4 mph 27.6 mph N/A   Clear
3:53 AM 44.6 °F 37.8 °F 30.2 °F 57% 29.99 in 10.0 mi East 15.0 mph - N/A   Scattered Clouds
4:53 AM 43.0 °F 35.4 °F 30.0 °F 60% 29.99 in 10.0 mi East 16.1 mph - N/A   Mostly Cloudy
5:53 AM 42.8 °F 34.3 °F 30.2 °F 61% 29.95 in 10.0 mi ENE 19.6 mph 25.3 mph N/A   Scattered Clouds
6:53 AM 44.1 °F 36.5 °F 30.9 °F 60% 29.95 in 10.0 mi East 17.3 mph - N/A   Mostly Cloudy
7:53 AM 46.0 °F 38.0 °F 30.9 °F 56% 29.94 in 10.0 mi East 21.9 mph 31.1 mph N/A   Mostly Cloudy
8:53 AM 46.9 °F - 30.9 °F 54% 29.92 in 10.0 mi East 26.5 mph 36.8 mph N/A   Overcast
9:53 AM 48.2 °F - 30.2 °F 50% 29.90 in 10.0 mi East 19.6 mph 29.9 mph N/A   Overcast
10:53 AM 48.9 °F - 33.1 °F 54% 29.93 in 10.0 mi East 20.7 mph 26.5 mph 0.00 in Rain Light Rain
11:53 AM 53.1 °F - 33.1 °F 47% 29.88 in 10.0 mi East 25.3 mph 35.7 mph 0.00 in Rain Light Rain
12:53 PM 54.0 °F - 30.9 °F 41% 29.83 in 10.0 mi East 23.0 mph 43.7 mph 0.00 in   Overcast
1:53 PM 55.9 °F - 33.1 °F 42% 29.83 in 10.0 mi East 34.5 mph 43.7 mph 0.00 in   Overcast
2:53 PM 57.9 °F - 33.1 °F 39% 29.82 in 10.0 mi East 28.8 mph 40.3 mph N/A   Mostly Cloudy
3:53 PM 55.9 °F - 32.0 °F 40% 29.82 in 10.0 mi East 31.1 mph 42.6 mph N/A   Overcast
4:53 PM 55.4 °F - 32.0 °F 41% 29.82 in 10.0 mi East 25.3 mph 35.7 mph N/A   Overcast
5:53 PM 54.0 °F - 34.0 °F 47% 29.80 in 10.0 mi East 28.8 mph 35.7 mph 0.00 in   Overcast
6:53 PM 53.1 °F - 35.1 °F 50% 29.77 in 10.0 mi East 28.8 mph 36.8 mph N/A   Overcast
7:53 PM 52.0 °F - 37.0 °F 57% 29.77 in 10.0 mi East 21.9 mph 29.9 mph N/A   Overcast
8:53 PM 52.0 °F - 37.0 °F 57% 29.78 in 10.0 mi East 21.9 mph 33.4 mph N/A   Overcast
9:53 PM 52.0 °F - 34.0 °F 50% 29.77 in 10.0 mi East 19.6 mph - N/A   Overcast
10:53 PM 51.1 °F - 35.1 °F 54% 29.75 in 10.0 mi East 20.7 mph 27.6 mph 0.00 in   Overcast
11:15 PM 51.1 °F - 35.1 °F 54% 29.73 in 10.0 mi East 17.3 mph 27.6 mph N/A   Overcast
11:53 PM 51.1 °F - 36.0 °F 56% 29.73 in 10.0 mi East 17.3 mph 28.8 mph N/A   Overcast